Location: Edinburgh
(55.9500°N, 3.1600°W)
Time: 21:39:15
(UTC+00:00)

Envisat - Pass Details

Date: 08 October 2017
Orbit: 764 x 766 km, 98.2° (Epoch: 12 December)

Event Time Altitude Azimuth Distance (km) Brightness Sun altitude
Exits shadow 19:00:35 - 113° (ESE) 2,951 5.5 -5.2°
Reaches altitude 10° 19:02:32 10° 102° (ESE) 2,310 4.9 -5.4°
Maximum altitude 19:06:23 22° 53° (NE) 1,628 4.3 -6.0°
Drops below altitude 10° 19:10:14 10° 4° (N) 2,321 5.5 -6.5°
Sets 19:12:59 0° 349° (N) 3,251 6.4 -6.9°
